TimeAST,TemperatureF,Dew PointF,Humidity,Sea Level PressureIn,VisibilityMPH,Wind Direction,Wind SpeedMPH,Gust SpeedMPH,PrecipitationIn,Events,Conditions,WindDirDegrees,DateUTC
12:00 AM,77.0,71.6,83,29.95,6.2,East,9.2,-,N/A,,Partly Cloudy,80,2014-02-02 04:00:00
1:00 AM,77.0,71.6,83,29.92,6.2,East,15.0,-,N/A,,Scattered Clouds,90,2014-02-02 05:00:00
2:00 AM,77,72,82,29.93,11,East,8.1,,,,Widespread Dust,80,2014-02-02 06:00:00
2:00 AM,77.0,73.4,89,29.92,6.2,East,8.1,-,N/A,,Partly Cloudy,80,2014-02-02 06:00:00
3:00 AM,77.0,71.6,83,29.89,6.2,East,9.2,-,N/A,,Partly Cloudy,100,2014-02-02 07:00:00
4:00 AM,77.0,71.6,83,29.89,6.2,East,8.1,-,N/A,,Partly Cloudy,90,2014-02-02 08:00:00
5:00 AM,77,73,85,29.91,11,East,8.1,,,,Widespread Dust,80,2014-02-02 09:00:00
5:00 AM,77.0,73.4,89,29.89,6.2,East,8.1,-,N/A,,Partly Cloudy,80,2014-02-02 09:00:00
6:00 AM,77.0,73.4,89,29.92,6.2,East,11.5,-,N/A,,Scattered Clouds,90,2014-02-02 10:00:00
7:00 AM,77.0,73.4,89,29.92,6.2,East,9.2,-,N/A,,Partly Cloudy,90,2014-02-02 11:00:00
8:00 AM,80,75,79,29.94,9,East,13.8,,,,Scattered Clouds,90,2014-02-02 12:00:00
8:00 AM,80.6,75.2,84,29.92,6.2,East,13.8,-,N/A,,Partly Cloudy,90,2014-02-02 12:00:00
9:00 AM,82.4,73.4,74,29.95,6.2,East,15.0,-,N/A,,Scattered Clouds,90,2014-02-02 13:00:00
10:00 AM,84.2,73.4,70,29.95,6.2,East,16.1,-,N/A,,Mostly Cloudy,100,2014-02-02 14:00:00
11:00 AM,84,74,65,29.96,10,East,16.1,,,,Widespread Dust,100,2014-02-02 15:00:00
11:00 AM,84.2,73.4,70,29.95,6.2,East,16.1,-,N/A,,Scattered Clouds,100,2014-02-02 15:00:00
12:00 PM,82.4,75.2,79,29.95,5.0,East,19.6,-,N/A,Rain,Light Rain Showers,100,2014-02-02 16:00:00
1:00 PM,84.2,73.4,70,29.92,6.2,ESE,19.6,32.2,N/A,,Scattered Clouds,110,2014-02-02 17:00:00
2:00 PM,77,74,90,29.91,5,East,17.3,,,Rain,Light Rain Showers,100,2014-02-02 18:00:00
2:00 PM,77.0,75.2,94,29.89,5.0,East,17.3,-,N/A,Rain,Light Rain Showers,100,2014-02-02 18:00:00
3:00 PM,80.6,69.8,70,29.89,6.2,East,20.7,-,N/A,,Mostly Cloudy,100,2014-02-02 19:00:00
4:00 PM,82.4,73.4,74,29.86,6.2,SE,17.3,-,N/A,,Partly Cloudy,130,2014-02-02 20:00:00
5:00 PM,82,73,67,29.88,12,East,16.1,,,,Partly Cloudy,100,2014-02-02 21:00:00
5:00 PM,82.4,73.4,74,29.86,6.2,East,16.1,-,N/A,,Partly Cloudy,100,2014-02-02 21:00:00
6:00 PM,80.6,71.6,74,29.89,6.2,East,11.5,-,N/A,,Partly Cloudy,80,2014-02-02 22:00:00
7:00 PM,78.8,71.6,78,29.89,6.2,East,11.5,-,N/A,,Partly Cloudy,80,2014-02-02 23:00:00
8:00 PM,78,72,76,29.91,12,ENE,12.7,,,,Widespread Dust,70,2014-02-03 00:00:00
8:00 PM,78.8,71.6,78,29.89,6.2,ENE,12.7,-,N/A,,Partly Cloudy,70,2014-02-03 00:00:00
9:00 PM,78.8,73.4,83,29.92,6.2,East,4.6,-,N/A,,Partly Cloudy,80,2014-02-03 01:00:00
10:00 PM,78.8,73.4,83,29.92,6.2,East,17.3,-,N/A,,Partly Cloudy,90,2014-02-03 02:00:00
11:00 PM,78,73,79,29.93,12,East,16.1,,,,Widespread Dust,90,2014-02-03 03:00:00
11:00 PM,78.8,73.4,83,29.92,6.2,East,16.1,-,N/A,,Partly Cloudy,90,2014-02-03 03:00:00